This is the latest recevied weather packets stored in our database for station/object KD4EG. If no packets are shown the sender has not sent any weather packets the latest 1 day(s).
| Time | Temp. | Humidity | Pressure | Rain* | Wind** | Luminosity | Snow |
|---|---|---|---|---|---|---|---|
| 1778076470 | 16.67° C | 89% | 1013.9 hPa | 0 mm | - | 105 W/m² | - |
| 1778075560 | 16.67° C | 87% | 1014.1 hPa | 1.27 mm | - | 134 W/m² | - |
| 1778074347 | 16.67° C | 87% | 1013.8 hPa | 1.78 mm | - | 80 W/m² | - |
| 1778074044 | 17.22° C | 89% | 1013.9 hPa | 1.78 mm | - | 91 W/m² | - |
| 1778073439 | 17.22° C | 87% | 1013.7 hPa | 0 mm | - | 41 W/m² | - |
| 1778072832 | 17.22° C | 86% | 1013.7 hPa | 0 mm | - | 61 W/m² | - |
| 1778072529 | 17.22° C | 86% | 1013.8 hPa | 0 mm | - | 63 W/m² | - |
| 1778072227 | 17.22° C | 87% | 1013.6 hPa | 0 mm | - | 59 W/m² | - |
| 1778071017 | 17.22° C | 85% | 1013.6 hPa | 0 mm | - | 40 W/m² | - |
| 1778070716 | 17.22° C | 86% | 1013.8 hPa | 0 mm | - | 35 W/m² | - |
| 1778068898 | 16.67° C | 87% | 1013 hPa | 0 mm | - | 48 W/m² | - |
| 1778068597 | 16.67° C | 87% | 1013.4 hPa | 0 mm | - | 52 W/m² | - |
| 1778068295 | 16.67° C | 87% | 1013.2 hPa | 0 mm | - | 50 W/m² | - |
| 1778067992 | 16.11° C | 87% | 1012.9 hPa | 0 mm | - | 31 W/m² | - |
| 1778067690 | 16.67° C | 87% | 1012.7 hPa | 0 mm | - | 24 W/m² | - |
| 1778067085 | 16.67° C | 86% | 1012.6 hPa | 0 mm | - | 11 W/m² | - |
| 1778066781 | 16.67° C | 84% | 1013 hPa | 0 mm | - | 9 W/m² | - |
| 1778066479 | 17.22° C | 80% | 1013 hPa | 0 mm | - | 7 W/m² | - |
| 1778066176 | 17.22° C | 79% | 1013.3 hPa | 0 mm | - | 9 W/m² | - |
| 1778065874 | 17.78° C | 76% | 1013 hPa | 0 mm | - | 9 W/m² | - |
| 1778065571 | 17.78° C | 75% | 1013 hPa | 0 mm | - | 2 W/m² | - |
| 1778064360 | 17.78° C | 72% | 1012.6 hPa | 0 mm | - | 0 W/m² | - |
| 1778064057 | 17.78° C | 73% | 1012.7 hPa | 0 mm | - | 0 W/m² | - |
| 1778063754 | 17.78° C | 71% | 1012.3 hPa | 0 mm | - | 0 W/m² | - |
| 1778062543 | 18.33° C | 71% | 1012.2 hPa | 0 mm | - | 0 W/m² | - |
* Rain latest hour (hover to see other rain measurements)
** Current wind speed in m/s (hover to see current wind gust speed)